Location: Breungeshain
(50.5000°N, 9.2000°E)
Time: 17:07:06
(UTC+00:00)

ISS - Pass Details

Date: 25 May 2018
Orbit: 402 x 408 km, 51.6° (Epoch: 19 September)

Event Time Altitude Azimuth Distance (km) Brightness Sun altitude
Rises 00:01:20 0° 286° (WNW) 2,321 0.1 -18.0°
Reaches altitude 10° 00:03:27 10° 282° (WNW) 1,460 -1.0 -18.0°
Enters shadow 00:05:45 38° 258° (WSW) 630 -3.1 -17.9°
